www.pogodaiklimat.ru

Погода и климат >> Архив погоды >> Россия >> Астраханская область >> Досанг


ПОГОДА в Досанге

  • Прогноз погоды в Досанге
  • Монитор погоды в Досанге
  • Климат города

АРХИВ ПОГОДЫ в Досанге

Время (UTC), дата Ветер
(напр.,м/с)
 
Видим.   Явления Облачность Т
(С)
Тd
(С)
f
(%)
Тe
(С)
Тes
(С)
Комфортность P
(гПа)
Po
(гПа)
Тmin
(С)
Tmax
(С)
R
(мм)
R24
(мм)
S
(см)
06 17.06 СВ 6-11
{11}
20 км ясно +24.1 -0.2 20 +23 +28 комфорт 1012.1 1014.2
09 17.06 СВ 6
{11}
20 км ясно +27.5 -3.6 13 +25 +32 комфорт 1011.6 1013.6
12 17.06 С 6-15
{15}
20 км ясно +29.2 -3.7 11 +26 +30 жарко 1010.4 1012.4
15 17.06 СВ 5
{15}
20 км 3/0
[Ci fib]
+28.5 -3.4 12 +25 +26 комфорт 1009.8 1011.9 +29.3
18 17.06 С 3 10 км 1/0
[Ci fib]
+21.1 -3.7 19 +20 +20 1011.2 1013.3
21 17.06 С 3 10 км ясно +17.2 -3.0 25 +17 +17 1010.9 1013.1
00 18.06 СВ 3 10 км ясно +14.5 -2.2 32 +14 +14 1011.1 1013.3
03 18.06 В 3 20 км 1/0
[Ci fib]
+20.2 +0.9 28 +21 +23 комфорт 1011.4 1013.5 +12.8
06 18.06 В 3 20 км 1/0
[Ci sp]
+27.2 +0.5 18 +25 +36 комфорт 1011.1 1013.2
09 18.06 С 2 20 км 3/0
[Ci fib]
+28.9 -1.5 14 +26 +44 жарко 1010.4 1012.5
12 18.06 С 2 20 км 3/0
[Ci fib]
+30.5 -1.6 12 +27 +38 жарко 1009.6 1011.6
15 18.06 З 4 20 км 3/0
[Ci sp]
+27.9 +5.5 24 +27 +28 жарко 1009.2 1011.3 +30.5
18 18.06 З 2 10 км ясно +23.0 +6.7 35 +24 +24 комфорт 1010.0 1012.1
21 18.06 З 1 10 км ясно +15.8 +5.8 51 +17 +17 1010.2 1012.3
00 19.06 СЗ 2 10 км ясно +16.0 +2.7 41 +16 +16 1010.3 1012.4
03 19.06 В 2 20 км ясно +20.6 +3.6 33 +22 +24 комфорт 1011.5 1013.6 +15.1
06 19.06 СВ 2 20 км ясно +29.2 +4.0 20 +27 +40 жарко 1012.0 1014.1
09 19.06 СВ 3 20 км 6/6 600 м
[Cu hum]
+30.4 +2.6 17 +28 +34 жарко 1011.8 1013.8
12 19.06 З 3 20 км 5/5 600 м
[Sc diur, vesp]
+31.5 +2.0 15 +29 +33 жарко 1011.3 1013.4
15 19.06 З 2 20 км 4/3 600 м
[Sc diur, vesp Ci fib]
+30.3 +6.9 23 +29 +30 жарко 1010.9 1013.0 +32.1
18 19.06 СЗ 2 10 км 3/0
[Ci fib]
+24.7 +8.4 35 +25 +25 комфорт 1011.9 1014.0
21 19.06 ЮЗ 1 10 км 1/0
[Ci fib]
+20.5 +13.6 65 +24 +24 комфорт 1012.1 1014.3
00 20.06 З 2 10 км 4/0
[Ac trans Ci fib]
+19.2 +8.8 51 +21 +21 комфорт 1012.2 1014.3
03 20.06 З 2 20 км 3/0
[Ac trans Ci fib]
+22.5 +7.6 38 +23 +26 комфорт 1012.7 1014.8 +18.4
06 20.06 З 2 20 км 3/1 600 м
[Cu hum Ci fib]
+29.3 +9.2 29 +29 +40 жарко 1012.9 1014.9
09 20.06 ЮЗ 3 20 км 5/5 600 м
[Cu med, cong]
+33.3 +1.6 13 +30 +38 жарко 1012.8 1014.8
12 20.06 З 3 20 км 6/3 600 м
[Cu med, cong Ci fib]
+33.7 +2.6 14 +31 +37 жарко 1011.5 1013.5
15 20.06 ЮЗ 1 20 км 5/3 600 м
[Sc diur, vesp Ci fib]
+32.6 +8.4 22 +31 +32 жарко 1010.7 1012.7 +34.7
18 20.06 Ю 3 10 км 3/0
[Ci fib]
+25.7 +11.0 40 +27 +27 жарко 1011.7 1013.8
21 20.06 Ю 2 10 км ясно +22.9 +8.6 40 +24 +24 комфорт 1011.6 1013.7
00 21.06 ЮЗ 1 10 км ясно +20.1 +8.5 47 +22 +22 комфорт 1011.1 1013.2
03 21.06 ЮЗ 2 20 км ясно +21.6 +11.2 52 +24 +26 комфорт 1010.9 1013.0 +19.9
06 21.06 З 1 20 км ясно +31.2 +9.9 27 +31 +46 жарко 1011.1 1013.1
09 21.06 З 5 20 км 8/5 600 м
[Cb cap Cc]
+34.3 +10.3 23 +33 +38 жарко 1010.0 1012.0
12 21.06 З 4 20 км 6/6 600 м
[Cu med, cong]
+34.9 +12.0 25 +35 +38 очень
жарко
1009.2 1011.2
15 21.06 З 4 20 км 4/4 600 м
[Cu med, cong]
+32.3 +14.1 33 +34 +34 душно 1008.8 1010.9 +35.3
18 21.06 СЗ 2 10 км ясно +26.5 +14.9 49 +29 +29 жарко 1010.3 1012.3
21 21.06 С 3 10 км ясно +23.1 +5.3 32 +23 +23 комфорт 1010.7 1012.8
00 22.06 С 3 10 км ясно +19.4 +2.3 32 +20 +20 1011.3 1013.4
03 22.06 СВ 3 20 км ясно +23.4 +3.0 26 +23 +25 комфорт 1012.2 1014.3 +18.6
06 22.06 С 3 20 км ясно +29.8 +2.9 18 +28 +38 жарко 1012.3 1014.3
09 22.06 СЗ 2
{10}
20 км ясно +32.4 +1.6 14 +29 +48 жарко 1011.8 1013.8
12 22.06 СЗ 2 20 км ясно +33.6 +1.8 13 +30 +42 жарко 1010.3 1012.3
15 22.06 С 4 20 км ясно +33.0 +1.5 14 +30 +31 жарко 1009.6 1011.6 +34.2
18 22.06 С 2 10 км ясно +25.4 +2.9 23 +24 +24 комфорт 1010.4 1012.4
21 22.06 СВ 3 10 км ясно +21.5 +2.8 29 +21 +21 комфорт 1010.9 1013.0
00 23.06 СВ 3 10 км ясно +18.6 +2.1 33 +19 +19 1011.1 1013.2
03 23.06 СВ 3 20 км ясно +23.3 +1.7 24 +23 +24 комфорт 1011.7 1013.8 +17.1
06 23.06 СВ 4 20 км ясно +30.7 -0.4 13 +28 +36 жарко 1012.0 1014.0
09 23.06 В 5 20 км ясно +32.8 -1.2 11 +29 +39 жарко 1011.1 1013.1
12 23.06 ЮВ 3 20 км ясно +34.3 0.0 11 +31 +40 жарко 1009.7 1011.7
15 23.06 Ю 4 20 км ясно +30.7 +8.4 25 +30 +31 жарко 1009.3 1011.4 +34.4
18 23.06 Ю 2 10 км 1/0
[Ci fib]
+24.4 +12.1 46 +26 +26 жарко 1010.9 1013.0
21 23.06 З 1 10 км 3/0
[Ci fib]
+20.3 +13.0 63 +24 +24 комфорт 1011.1 1013.2
00 24.06 С 2 10 км 3/0
[Ci fib]
+17.1 +11.2 68 +17 +17 1010.9 1013.0
03 24.06 С 2 20 км 3/0
[Ci fib]
+23.7 +10.7 44 +25 +27 комфорт 1011.8 1013.9 +15.8

 

Местоположение метеостанции Досанг (Астраханская область, Россия): широта 46.92 долгота 47.93 высота над уровнем моря -19 м.

В архиве по умолчанию представлена погода в Досанге за последнюю неделю. Архивные данные за месяц целиком и за предыдущие месяцы, начиная с января 2011 года, Вы можете получить, выбрав интересующий диапазон дат из раскрывающегося списка и нажав кнопку "Ввод!".


*Определитесь, кто Вы:
робот инопланетянин человек

Внимание! Время в таблицах - всемирное. Для получения местного времени необходимо прибавить поправку, которая в Досанге равна 4 ч.

Смотрите также архив погоды в соседних городах и на ближайших метеорологических станциях:

Погода в Астрахани (Астраханская область, Россия) (71 км)
Погода в Харабали (Астраханская область, Россия) (74 км)
Погода в Зеленге (Астраханская область, Россия) (98 км)
Погода в Ганюшкино (Атырауская область, Казахстан) (108 км)
Погода в Юсте (Калмыкия, Россия) (124 км)
Погода в Жанауштогане (Атырауская область, Казахстан) (127 км)
Погода в Лимане (Астраханская область, Россия) (136 км)
Погода в Утте (Калмыкия, Россия) (158 км)
Погода в Исатай (Атырауская область, Казахстан) (163 км)
Погода в Верхнем Баскунчаке (Астраханская область, Россия) (170 км)

Пояснения к столбцам:

Ветер - указаны скорость ветра в м/с - средняя за 10 мин, порывы в срок и между сроками (в фигурных скобках) и направление, откуда дует ветер: С - северный, СВ - северо-восточный, В - восточный, ЮВ - юго-восточный, Ю - южный, ЮЗ - юго-западный, З - западный, СЗ - северо-западный.
Видимость - горизонтальная дальность видимости в метрах или километрах. При видимости от 1 до 10 км при отсутствии осадков обычно наблюдается дымка, при ухудшении видимости до 1 км и менее - туман. В сухую погоду видимость может ухудшаться дымом, пылью или мглою.
Явления - указаны атмосферные явления, наблюдавшиеся в срок или в последний час перед сроком; фигурными скобками обозначены явления, наблюдавшиеся между сроками (за 1-3 часа до срока); квадратными скобками обозначены град или гололедные отложения с указанием их диаметра в мм.
Облачность - указаны через наклонную черту общая и нижняя облачность в баллах и высота нижней границы облаков в метрах; квадратными скобками обозначены формы облаков: Ci - перистые, Cs - перисто-слоистые, Cc - перисто-кучевые, Ac - высококучевые, As - высокослоистые, Sc - слоисто-кучевые, Ns - слоисто-дождевые, Cu - кучевые, Cb - кучево-дождевые. Подробнее классификацию облаков см. в Атласе облаков (PDF).
T - Температура воздуха - температура, измеренная на высоте 2 м над землей.
Td - Температура точки росы - температура, при понижении до которой содержащийся в воздухе водяной пар достигнет насыщения.
f - Относительная влажность воздуха - влажноcть воздуха, измеренная на высоте 2 м над землей.
Te - Эффективная температура - температура, которую ощущает одетый по сезону человек в тени. Характеристика душности погоды. При расчете учитывается влияние влажности воздуха и скорости ветра на теплоощущения человека.
Tes - Эффективная температура на солнце - температура, которую ощущает человек, с поправкой на солнечный нагрев. Характеристика знойности погоды. Зависит от высоты солнца над горизонтом, облачности и скорости ветра. Ночью, в пасмурную погоду, а также при ветре 12 м/с и более поправка равна нулю.
P - Атмосферное давление - приведенное к уровню моря атмосферное давление.
Po - Атмосферное давление - измеренное на уровне метеостанции атмосферное давление.
Tmin - Минимальная температура - минимум температуры воздуха на высоте 2 м над землей.
Tmax - Максимальная температура - максимум температуры воздуха на высоте 2 м над землей.
R - Количество осадков - Количество выпавших осадков за период времени, мм. При наведении курсора мыши на число - период времени, за который выпало указанное количество осадков.
R24 - Количество осадков - Количество выпавших осадков за 24 часа, мм.
S - Снежный покров - Высота снежного покрова, см. При наведении курсора мыши на число - состояние снежного покрова и степень покрытия местности в баллах.